When you browse on this site, cookies collect data to enhance your experience and personalize the content and advertising you see.
Visit our Privacy Policy to learn more. By continuing to use the site, you agree to this use of cookies and data.
  • In France
  • List of Countries
  • For 7 days
  • Water Temperature
  • Satellite Maps
  • Weather Map
  • Weather Widgets
  • user-avatar
    Login

    Hourly Weather Dolgi

    Today, 19 February, Tuesday

    Time Temperature Precipitation Wind Pressure Humidity
    00:00 -5°C° 0 mm 5 mps 756 mmHg 72%
    01:00 -5°C° 0 mm 5 mps 755 mmHg 72%
    02:00 -5°C° 0 mm 5 mps 755 mmHg 73%
    03:00 -4°C° 0 mm 5 mps 754 mmHg 76%
    04:00 -4°C° 0 mm 5 mps 754 mmHg 80%
    05:00 -4°C° 0 mm 5 mps 753 mmHg 83%
    06:00 -4°C° 0 mm 5 mps 753 mmHg 85%
    07:00 -2°C° 0 mm 4 mps 752 mmHg 86%
    08:00 -2°C° 0 mm 4 mps 752 mmHg 88%
    09:00 -2°C° 0 mm 4 mps 751 mmHg 88%
    10:00 -1°C° 0 mm 4 mps 751 mmHg 88%
    11:00 -1°C° 0 mm 4 mps 750 mmHg 88%
    12:00 0°C° 0 mm 4 mps 750 mmHg 87%
    13:00 0°C° 0 mm 4 mps 749 mmHg 87%
    14:00 0°C° 0 mm 4 mps 749 mmHg 87%
    15:00 0°C° 0 mm 4 mps 748 mmHg 87%
    16:00 0°C° 0 mm 4 mps 747 mmHg 88%
    17:00 0°C° 0 mm 4 mps 747 mmHg 88%
    18:00 0°C° 0 mm 4 mps 746 mmHg 88%
    19:00 0°C° 0 mm 4 mps 745 mmHg 89%
    20:00 0°C° 0 mm 5 mps 744 mmHg 90%
    21:00 0°C° 0 mm 4 mps 744 mmHg 90%
    22:00 0°C° 0 mm 4 mps 743 mmHg 90%
    23:00 0°C° 0 mm 4 mps 742 mmHg 90%

    Tomorrow, 20 February, Wednesday

    Time Temperature Precipitation Wind Pressure Humidity
    00:00 0°C° 0.3 mm 4 mps 742 mmHg 90%
    01:00 0°C° 0.3 mm 4 mps 742 mmHg 90%
    02:00 0°C° 0.3 mm 4 mps 742 mmHg 90%
    03:00 0°C° 0.1 mm 4 mps 741 mmHg 91%
    04:00 0°C° 0.1 mm 4 mps 741 mmHg 92%
    05:00 0°C° 0.1 mm 4 mps 741 mmHg 93%
    06:00 0°C° 0.1 mm 4 mps 741 mmHg 92%
    07:00 0°C° 0.1 mm 4 mps 741 mmHg 91%
    08:00 0°C° 0.1 mm 4 mps 741 mmHg 90%
    09:00 +1°C° 0.1 mm 5 mps 740 mmHg 88%
    10:00 +1°C° 0.1 mm 5 mps 740 mmHg 87%
    11:00 +1°C° 0.1 mm 5 mps 740 mmHg 85%
    12:00 +1°C° 0.1 mm 5 mps 740 mmHg 85%
    13:00 +1°C° 0.1 mm 5 mps 739 mmHg 85%
    14:00 +1°C° 0.1 mm 5 mps 739 mmHg 85%
    15:00 +1°C° 0.3 mm 4 mps 739 mmHg 85%
    16:00 0°C° 0.3 mm 4 mps 739 mmHg 86%
    17:00 0°C° 0.3 mm 4 mps 739 mmHg 86%
    18:00 -1°C° 0.2 mm 4 mps 739 mmHg 86%
    19:00 -1°C° 0.2 mm 4 mps 740 mmHg 86%
    20:00 -2°C° 0.2 mm 4 mps 740 mmHg 86%
    21:00 -2°C° 0.4 mm 5 mps 741 mmHg 86%
    22:00 -3°C° 0.4 mm 6 mps 741 mmHg 87%
    23:00 -4°C° 0.4 mm 6 mps 742 mmHg 87%

    Day after tomorrow, 21 February, Thursday

    Time Temperature Precipitation Wind Pressure Humidity
    00:00 -4°C° 0.3 mm 6 mps 743 mmHg 84%
    01:00 -4°C° 0.3 mm 6 mps 743 mmHg 81%
    02:00 -5°C° 0.3 mm 6 mps 744 mmHg 79%
    03:00 -5°C° 0 mm 6 mps 745 mmHg 78%
    04:00 -6°C° 0 mm 6 mps 745 mmHg 76%
    05:00 -6°C° 0 mm 6 mps 746 mmHg 75%
    06:00 -6°C° 0.1 mm 6 mps 747 mmHg 76%
    07:00 -6°C° 0.1 mm 6 mps 747 mmHg 76%
    08:00 -8°C° 0.1 mm 6 mps 748 mmHg 76%
    09:00 -6°C° 0.1 mm 6 mps 749 mmHg 74%
    10:00 -6°C° 0.1 mm 6 mps 750 mmHg 71%
    11:00 -7°C° 0.1 mm 7 mps 751 mmHg 69%
    12:00 -6°C° 0.1 mm 6 mps 752 mmHg 68%
    13:00 -6°C° 0.1 mm 6 mps 752 mmHg 67%
    14:00 -8°C° 0.1 mm 6 mps 753 mmHg 67%
    15:00 -8°C° 0 mm 6 mps 754 mmHg 67%
    16:00 -9°C° 0 mm 6 mps 755 mmHg 68%
    17:00 -9°C° 0 mm 6 mps 756 mmHg 69%
    18:00 -10°C° 0 mm 5 mps 757 mmHg 68%
    19:00 -10°C° 0 mm 5 mps 758 mmHg 68%
    20:00 -11°C° 0 mm 5 mps 759 mmHg 68%
    21:00 -11°C° 0 mm 5 mps 760 mmHg 68%
    22:00 -11°C° 0 mm 5 mps 760 mmHg 69%
    23:00 -11°C° 0 mm 4 mps 761 mmHg 69%

    22 February, Friday

    Time Temperature Precipitation Wind Pressure Humidity
    00:00 -11°C° 0 mm 4 mps 762 mmHg 70%
    01:00 -11°C° 0 mm 4 mps 762 mmHg 71%
    02:00 -12°C° 0 mm 4 mps 763 mmHg 72%
    03:00 -12°C° 0 mm 4 mps 764 mmHg 74%
    04:00 -12°C° 0 mm 4 mps 764 mmHg 75%
    05:00 -12°C° 0 mm 4 mps 765 mmHg 77%
    06:00 -12°C° 0 mm 3 mps 766 mmHg 78%
    07:00 -12°C° 0 mm 3 mps 766 mmHg 79%
    08:00 -12°C° 0 mm 3 mps 767 mmHg 80%
    09:00 -10°C° 0 mm 3 mps 767 mmHg 74%
    10:00 -10°C° 0 mm 4 mps 767 mmHg 68%
    11:00 -9°C° 0 mm 4 mps 767 mmHg 61%
    12:00 -8°C° 0 mm 4 mps 767 mmHg 61%
    13:00 -8°C° 0 mm 4 mps 767 mmHg 61%
    14:00 -7°C° 0 mm 5 mps 767 mmHg 61%
    15:00 -8°C° 0 mm 5 mps 768 mmHg 65%
    16:00 -8°C° 0 mm 5 mps 768 mmHg 70%
    17:00 -10°C° 0 mm 5 mps 768 mmHg 74%
    18:00 -9°C° 0 mm 4 mps 769 mmHg 75%
    19:00 -9°C° 0 mm 4 mps 769 mmHg 75%
    20:00 -9°C° 0 mm 4 mps 770 mmHg 76%
    21:00 -10°C° 0 mm 4 mps 770 mmHg 79%
    22:00 -9°C° 0 mm 3 mps 770 mmHg 82%
    23:00 -9°C° 0 mm 2 mps 771 mmHg 84%

    23 February, Saturday

    Time Temperature Precipitation Wind Pressure Humidity
    00:00 -9°C° 0 mm 2 mps 771 mmHg 86%
    01:00 -9°C° 0 mm 1 mps 771 mmHg 88%
    02:00 -9°C° 0 mm 1 mps 771 mmHg 90%
    03:00 -9°C° 0 mm 1 mps 771 mmHg 89%
    04:00 -9°C° 0 mm 1 mps 770 mmHg 88%
    05:00 -8°C° 0 mm 0 mps 770 mmHg 87%
    06:00 -8°C° 0 mm 1 mps 770 mmHg 86%
    07:00 -8°C° 0 mm 1 mps 769 mmHg 85%
    08:00 -7°C° 0 mm 1 mps 769 mmHg 83%
    09:00 -7°C° 0.1 mm 1 mps 769 mmHg 84%
    10:00 -8°C° 0.1 mm 2 mps 768 mmHg 84%
    11:00 -7°C° 0.1 mm 2 mps 768 mmHg 85%
    12:00 -7°C° 0.4 mm 2 mps 767 mmHg 86%
    13:00 -6°C° 0.4 mm 2 mps 767 mmHg 88%
    14:00 -7°C° 0.4 mm 3 mps 767 mmHg 89%
    15:00 -6°C° 0.1 mm 2 mps 767 mmHg 89%
    16:00 -6°C° 0.1 mm 2 mps 767 mmHg 89%
    17:00 -6°C° 0.1 mm 2 mps 767 mmHg 89%
    18:00 -6°C° 0 mm 2 mps 767 mmHg 90%
    19:00 -7°C° 0 mm 2 mps 767 mmHg 92%
    20:00 -6°C° 0 mm 1 mps 768 mmHg 93%
    21:00 -6°C° 0 mm 1 mps 768 mmHg 94%
    22:00 -7°C° 0 mm 2 mps 769 mmHg 94%
    23:00 -8°C° 0 mm 2 mps 769 mmHg 95%

    24 February, Sunday

    Time Temperature Precipitation Wind Pressure Humidity
    00:00 -8°C° 0 mm 2 mps 769 mmHg 95%
    01:00 -8°C° 0 mm 2 mps 769 mmHg 95%
    02:00 -8°C° 0 mm 2 mps 770 mmHg 95%
    03:00 -8°C° 0 mm 2 mps 770 mmHg 95%
    04:00 -8°C° 0 mm 2 mps 770 mmHg 95%
    05:00 -8°C° 0 mm 2 mps 770 mmHg 95%
    06:00 -8°C° 0 mm 2 mps 770 mmHg 94%
    07:00 -8°C° 0 mm 2 mps 770 mmHg 94%
    08:00 -7°C° 0 mm 2 mps 769 mmHg 93%
    09:00 -7°C° 0 mm 3 mps 769 mmHg 90%
    10:00 -6°C° 0 mm 3 mps 769 mmHg 88%
    11:00 -5°C° 0 mm 4 mps 769 mmHg 85%
    12:00 -4°C° 0 mm 4 mps 768 mmHg 84%
    13:00 -3°C° 0 mm 4 mps 767 mmHg 83%
    14:00 -3°C° 0 mm 4 mps 767 mmHg 82%
    15:00 -3°C° 0 mm 4 mps 766 mmHg 84%
    16:00 -3°C° 0 mm 4 mps 765 mmHg 85%
    17:00 -3°C° 0 mm 4 mps 764 mmHg 87%
    18:00 -4°C° 0.2 mm 5 mps 763 mmHg 87%
    19:00 -2°C° 0.2 mm 5 mps 762 mmHg 88%
    20:00 -2°C° 0.2 mm 5 mps 762 mmHg 89%
    21:00 -2°C° 0.1 mm 5 mps 761 mmHg 90%
    22:00 -1°C° 0.1 mm 4 mps 760 mmHg 91%
    23:00 -1°C° 0.1 mm 4 mps 759 mmHg 91%
    Show more